カタログに戻る

STARLINK-33737

運用中通信VLEO
NORAD 63456·PAYLOAD·🇺🇸 United States

打ち上げ Apr 4, 2025 から Vandenberg Space Force Base

Loading…

次のパス (今後24時間)

TLE

最新Source: CelesTrak SupGP

元期: Sep 15, 2026, 03:39 UTC

1 63456C 25069Z   26258.15256944  .00060838  00000+0  17977-2 0  2580
2 63456  53.1588 334.6905 0001191  93.2726 174.0418 15.34356912    12

AllMySatでSTARLINK-33737をリアルタイム追跡

Download on the App Store